Thunder radar more information blitzortung!


Radar de pluja more information rain snow radar


Visita la nostra xarxa de llocs de meteo:

Template documentation
and downloads

And another site



No particular awareness of the weather is required.    There are no Weather-warnings

Pagina Historial Weather Underground text

Diari Resum Cap La, TWC- Unitats:  Mètric    Imperial   Tant
« Previous Dia
SegĂźent Dia »
Diari Setmana Mensual Anual Personalitzada
  Maxima: Minima: Media:
Temperatura: -17.8 °C -11.6 °C -9.3 °C
Punt de rosada: -17.8 °C -12.9 °C -11.6 °C
Humitat: Humidity % 63 % 77 %
Wind Speed: 0 km/h 0 km/h 9.5 km/h
RĂ fegues de vent: 0 km/h - -
Vent:- - East
Pression baro: 0 hPa 34567.7 hPa -
Precipitacions: 0 mm    
Historical Graphs
 
 
Dades de taula per Cap La, TWC-
Temps Temperatura Punt de rosada Pression baro Vent Wind Speed RĂ fegues de vent Humitat Rainfall Rate (Hourly)
-17.8 °C -17.8 °C 0 hPa Calm     Humidity % 0 mm
00:04 -9.8 °C -11.3 °C 34601.5 hPa NNE 9 km/h 3.7 km/h 84 % 0 mm
00:09 -9.8 °C -11.4 °C 34601.5 hPa NE 14 km/h 6.8 km/h 83 % 0 mm
00:14 -9.9 °C -11.5 °C 34601.5 hPa NNE 9 km/h 5.6 km/h 83 % 0 mm
00:19 -9.9 °C -11.5 °C 34601.5 hPa NNE 6 km/h 4.2 km/h 83 % 0 mm
00:24 -10 °C -11.6 °C 34601.5 hPa NNE 9 km/h 6.3 km/h 83 % 0 mm
00:29 -10 °C -11.5 °C 34601.5 hPa NE 9 km/h 2.3 km/h 84 % 0 mm
00:34 -10.1 °C -11.6 °C 34601.5 hPa North 6 km/h 3.1 km/h 84 % 0 mm
00:39 -10.1 °C -11.6 °C 34601.5 hPa NNW 3.1 km/h   84 % 0 mm
00:44 -10.2 °C -11.6 °C 34601.5 hPa NNE 6 km/h 4.2 km/h 84 % 0 mm
00:49 -10.2 °C -11.7 °C 34567.7 hPa North 3.7 km/h 2.3 km/h 84 % 0 mm
00:54 -10.3 °C -11.8 °C 34567.7 hPa NW 4.2 km/h   84 % 0 mm
00:59 -10.3 °C -11.8 °C 34567.7 hPa NNE 3.1 km/h   84 % 0 mm
01:04 -10.3 °C -11.8 °C 34567.7 hPa NE 3.7 km/h 3.1 km/h 84 % 0 mm
01:09 -10.3 °C -11.8 °C 34601.5 hPa South 6 km/h 2.3 km/h 84 % 0 mm
01:14 -10.4 °C -11.8 °C 34601.5 hPa NE 3.1 km/h 2.3 km/h 84 % 0 mm
01:19 -10.4 °C -11.8 °C 34601.5 hPa NW 6 km/h 2.3 km/h 84 % 0 mm
01:24 -10.4 °C -11.8 °C 34601.5 hPa NNE 4.2 km/h 3.7 km/h 84 % 0 mm
01:29 -10.4 °C -11.9 °C 34601.5 hPa NNE 3.1 km/h   84 % 0 mm
01:34 -10.4 °C -11.9 °C 34601.5 hPa NE 6 km/h 5.1 km/h 84 % 0 mm
01:39 -10.4 °C -11.8 °C 34601.5 hPa NNW 8 km/h 8 km/h 84 % 0 mm
01:44 -10.4 °C -11.8 °C 34601.5 hPa ENE 6 km/h   84 % 0 mm
01:49 -10.4 °C -11.8 °C 34601.5 hPa NNE 3.1 km/h   84 % 0 mm
01:54 -10.4 °C -11.9 °C 34601.5 hPa North 3.1 km/h   84 % 0 mm
01:59 -10.4 °C -11.9 °C 34601.5 hPa NNE 6 km/h 2.3 km/h 84 % 0 mm
02:04 -10.5 °C -12 °C 34601.5 hPa NNW 3.1 km/h   84 % 0 mm
02:09 -10.6 °C -12.1 °C 34601.5 hPa Calm     84 % 0 mm
02:14 -10.6 °C -12.1 °C 34601.5 hPa Calm     84 % 0 mm
02:19 -10.6 °C -12.1 °C 34601.5 hPa NNE 4.2 km/h 2.3 km/h 84 % 0 mm
02:24 -10.6 °C -12.1 °C 34601.5 hPa NNE 3.7 km/h   84 % 0 mm
02:29 -10.6 °C -12.1 °C 34601.5 hPa NNE 11.9 km/h 6.3 km/h 84 % 0 mm
02:34 -10.6 °C -12.1 °C 34601.5 hPa WNW 3.1 km/h   84 % 0 mm
02:39 -10.6 °C -12.1 °C 34601.5 hPa NE 3.1 km/h   84 % 0 mm
02:44 -10.7 °C -12.1 °C 34601.5 hPa NNE 6 km/h 4.2 km/h 84 % 0 mm
02:49 -10.7 °C -12.2 °C 34601.5 hPa NE 6 km/h 3.1 km/h 84 % 0 mm
02:54 -10.7 °C -12.2 °C 34601.5 hPa NE 3.1 km/h   84 % 0 mm
02:59 -10.8 °C -12.3 °C 34601.5 hPa NNE 3.1 km/h   84 % 0 mm
03:04 -10.8 °C -12.3 °C 34601.5 hPa NNE 6 km/h 2.3 km/h 84 % 0 mm
03:09 -10.8 °C -12.3 °C 34601.5 hPa NNE 6.3 km/h 5.1 km/h 84 % 0 mm
03:14 -10.9 °C -12.3 °C 34601.5 hPa WNW 3.1 km/h   84 % 0 mm
03:19 -10.9 °C -12.3 °C 34601.5 hPa NNW 3.1 km/h   84 % 0 mm
03:24 -10.9 °C -12.3 °C 34601.5 hPa ENE 6 km/h 3.7 km/h 85 % 0 mm
03:29 -10.9 °C -12.3 °C 34601.5 hPa NNE 9 km/h 4.2 km/h 85 % 0 mm
03:34 -10.9 °C -12.3 °C 34601.5 hPa NE 9 km/h 5.1 km/h 85 % 0 mm
03:39 -11 °C -12.4 °C 34601.5 hPa NNW 9 km/h 2.3 km/h 84 % 0 mm
03:44 -11 °C -12.4 °C 34601.5 hPa WNW 9 km/h 7.6 km/h 84 % 0 mm
03:49 -11 °C -12.4 °C 34601.5 hPa NE 6 km/h 2.3 km/h 84 % 0 mm
03:54 -11 °C -12.3 °C 34601.5 hPa NE 11.9 km/h 3.7 km/h 85 % 0 mm
03:59 -11.1 °C -12.4 °C 34601.5 hPa North 6 km/h 2.3 km/h 85 % 0 mm
04:04 -11.1 °C -12.4 °C 34635.4 hPa East 6 km/h 2.3 km/h 85 % 0 mm
04:09 -11.1 °C -12.4 °C 34635.4 hPa ENE 6 km/h 4.2 km/h 85 % 0 mm
04:14 -11.1 °C -12.4 °C 34635.4 hPa NNE 3.1 km/h 2.3 km/h 85 % 0 mm
04:19 -11.1 °C -12.4 °C 34635.4 hPa ENE 6 km/h 3.7 km/h 85 % 0 mm
04:24 -11.1 °C -12.4 °C 34635.4 hPa NNE 3.1 km/h   85 % 0 mm
04:29 -11.2 °C -12.6 °C 34635.4 hPa NNE 3.1 km/h 2.3 km/h 85 % 0 mm
04:34 -11.2 °C -12.6 °C 34635.4 hPa North 6.3 km/h   85 % 0 mm
04:39 -11.2 °C -12.6 °C 34635.4 hPa ENE 3.1 km/h   85 % 0 mm
04:44 -11.2 °C -12.6 °C 34635.4 hPa NW 9 km/h   85 % 0 mm
04:49 -11.2 °C -12.6 °C 34635.4 hPa NNE 3.1 km/h   85 % 0 mm
04:54 -11.2 °C -12.6 °C 34635.4 hPa ENE 9 km/h 5.1 km/h 85 % 0 mm
04:59 -11.2 °C -12.6 °C 34635.4 hPa NNW 6.8 km/h   85 % 0 mm
05:04 -11.3 °C -12.6 °C 34635.4 hPa ENE 3.1 km/h   85 % 0 mm
05:09 -11.3 °C -12.6 °C 34635.4 hPa ENE 3.1 km/h   85 % 0 mm
05:14 -11.3 °C -12.6 °C 34635.4 hPa North 6 km/h 5.1 km/h 85 % 0 mm
05:19 -11.3 °C -12.7 °C 34635.4 hPa NNE 3.1 km/h 2.3 km/h 85 % 0 mm
05:24 -11.3 °C -12.7 °C 34635.4 hPa Calm     85 % 0 mm
05:29 -11.3 °C -12.7 °C 34635.4 hPa NNE 3.1 km/h   85 % 0 mm
05:34 -11.3 °C -12.7 °C 34635.4 hPa East 3.1 km/h 3.1 km/h 85 % 0 mm
05:39 -11.3 °C -12.7 °C 34635.4 hPa SSE 6 km/h 2.3 km/h 85 % 0 mm
05:44 -11.3 °C -12.7 °C 34635.4 hPa ESE 6 km/h 5.6 km/h 85 % 0 mm
05:49 -11.3 °C -12.7 °C 34669.3 hPa NNE 6 km/h 3.7 km/h 85 % 0 mm
05:54 -11.3 °C -12.7 °C 34669.3 hPa ENE 11.9 km/h 3.7 km/h 85 % 0 mm
05:59 -11.3 °C -12.7 °C 34669.3 hPa NNE 6 km/h 3.1 km/h 85 % 0 mm
06:04 -11.4 °C -12.7 °C 34669.3 hPa NNE 6 km/h   85 % 0 mm
06:09 -11.4 °C -12.7 °C 34669.3 hPa WNW 3.7 km/h 2.3 km/h 85 % 0 mm
06:14 -11.4 °C -12.7 °C 34669.3 hPa NW 5.1 km/h   85 % 0 mm
06:19 -11.4 °C -12.7 °C 34669.3 hPa WSW 6 km/h   85 % 0 mm
06:24 -11.4 °C -12.8 °C 34669.3 hPa SW 3.1 km/h   85 % 0 mm
06:29 -11.4 °C -12.8 °C 34669.3 hPa West 9 km/h 2.3 km/h 85 % 0 mm
06:34 -11.4 °C -12.8 °C 34669.3 hPa WNW 3.1 km/h 2.3 km/h 85 % 0 mm
06:39 -11.5 °C -12.8 °C 34669.3 hPa WNW 3.1 km/h   85 % 0 mm
06:44 -11.5 °C -12.8 °C 34669.3 hPa NNW 6 km/h 3.1 km/h 85 % 0 mm
06:49 -11.5 °C -12.8 °C 34669.3 hPa WNW 6 km/h   85 % 0 mm
06:54 -11.5 °C -12.9 °C 34669.3 hPa East 6 km/h   84 % 0 mm
06:59 -11.5 °C -12.8 °C 34669.3 hPa NNW 6 km/h   85 % 0 mm
07:04 -11.5 °C -12.8 °C 34635.4 hPa WNW 6 km/h   85 % 0 mm
07:05 -7.7 °C -10.7 °C 34737 hPa NNE 2.6 km/h 7.7 km/h 71 % 0 mm
07:09 -11.5 °C -12.8 °C 34635.4 hPa North 3.1 km/h   85 % 0 mm
07:14 -11.5 °C -12.8 °C 34635.4 hPa WSW 4.2 km/h 2.3 km/h 85 % 0 mm
07:19 -11.6 °C -12.9 °C 34669.3 hPa NW 3.1 km/h   85 % 0 mm
07:24 -11.6 °C -12.9 °C 34669.3 hPa WNW 5.6 km/h   85 % 0 mm
07:29 -11.5 °C -12.8 °C 34669.3 hPa NNE 6.3 km/h 3.1 km/h 85 % 0 mm
07:34 -11.5 °C -12.8 °C 34669.3 hPa North 6 km/h   85 % 0 mm
07:39 -11.6 °C -12.9 °C 34669.3 hPa Calm     85 % 0 mm
07:44 -11.6 °C -12.9 °C 34669.3 hPa North 6 km/h   85 % 0 mm
07:49 -11.6 °C -12.9 °C 34669.3 hPa Calm     85 % 0 mm
07:54 -11.6 °C -12.9 °C 34669.3 hPa NNW 6 km/h 3.7 km/h 85 % 0 mm
07:59 -11.5 °C -12.8 °C 34669.3 hPa NNE 3.7 km/h   85 % 0 mm
08:04 -11.4 °C -12.8 °C 34669.3 hPa North 9 km/h 3.7 km/h 85 % 0 mm
08:09 -11.4 °C -12.7 °C 34669.3 hPa Calm     85 % 0 mm
08:14 -11.4 °C -12.7 °C 34669.3 hPa NNE 4.2 km/h   85 % 0 mm
08:19 -11.4 °C -12.8 °C 34703.1 hPa NNE 6 km/h 3.7 km/h 84 % 0 mm
08:24 -11.3 °C -12.8 °C 34703.1 hPa NNE 6 km/h 4.2 km/h 84 % 0 mm
08:29 -11.3 °C -12.8 °C 34703.1 hPa NNE 6 km/h 4.2 km/h 84 % 0 mm
08:34 -11.3 °C -12.7 °C 34703.1 hPa NE 6 km/h 4.2 km/h 84 % 0 mm
08:39 -11.3 °C -12.7 °C 34703.1 hPa NNE 6.3 km/h 2.3 km/h 84 % 0 mm
08:44 -11.2 °C -12.7 °C 34703.1 hPa NNE 9 km/h 5.6 km/h 84 % 0 mm
08:49 -11.2 °C -12.6 °C 34737 hPa ENE 8 km/h 6.3 km/h 84 % 0 mm
08:54 -11.1 °C -12.7 °C 34737 hPa NE 3.1 km/h 3.1 km/h 83 % 0 mm
08:59 -11.1 °C -12.6 °C 34737 hPa ESE 6 km/h 3.7 km/h 83 % 0 mm
09:04 -10.9 °C -12.5 °C 34737 hPa NE 10.3 km/h 8.5 km/h 83 % 0 mm
09:09 -10.9 °C -12.4 °C 34737 hPa ENE 8 km/h 4.2 km/h 83 % 0 mm
09:14 -10.8 °C -12.3 °C 34737 hPa North 11.9 km/h 7.6 km/h 83 % 0 mm
09:19 -10.7 °C -12.2 °C 34737 hPa ENE 9 km/h 3.7 km/h 83 % 0 mm
09:24 -10.6 °C -12.3 °C 34737 hPa NE 6.3 km/h 3.7 km/h 82 % 0 mm
09:29 -10.6 °C -12.2 °C 34737 hPa WNW 3.7 km/h   82 % 0 mm
09:34 -10.6 °C -12.2 °C 34737 hPa West 6 km/h 3.7 km/h 82 % 0 mm
09:39 -10.4 °C -12.2 °C 34737 hPa NNW 6 km/h 3.7 km/h 81 % 0 mm
09:44 -10.4 °C -12.2 °C 34737 hPa NW 9 km/h 5.6 km/h 81 % 0 mm
09:49 -10.4 °C -12.2 °C 34737 hPa NE 17.9 km/h 9.8 km/h 81 % 0 mm
09:54 -10.3 °C -12.2 °C 34737 hPa NNE 15 km/h 8 km/h 80 % 0 mm
09:59 -10.2 °C -12.1 °C 34737 hPa NE 17.9 km/h 12.7 km/h 80 % 0 mm
10:04 -10 °C -12 °C 34737 hPa NNE 20.9 km/h 8 km/h 79 % 0 mm
10:09 -9.8 °C -11.8 °C 34737 hPa NW 17.9 km/h 7.6 km/h 79 % 0 mm
10:14 -9.8 °C -11.8 °C 34737 hPa NNE 9 km/h 6.8 km/h 79 % 0 mm
10:19 -9.7 °C -11.8 °C 34737 hPa NNE 15 km/h 12.2 km/h 78 % 0 mm
10:24 -9.5 °C -11.6 °C 34737 hPa ENE 6 km/h 4.2 km/h 78 % 0 mm
10:29 -9.4 °C -11.6 °C 34737 hPa NNE 11.9 km/h 4.2 km/h 78 % 0 mm
10:34 -9.4 °C -11.6 °C 34737 hPa NNW 11.9 km/h 8 km/h 78 % 0 mm
10:39 -9.3 °C -11.5 °C 34737 hPa NNW 9 km/h 5.6 km/h 77 % 0 mm
10:44 -9.2 °C -11.4 °C 34737 hPa NE 9 km/h 5.6 km/h 77 % 0 mm
10:49 -9.1 °C -11.3 °C 34703.1 hPa NNE 6 km/h 6.8 km/h 77 % 0 mm
10:54 -8.9 °C -11.2 °C 34703.1 hPa NNW 6 km/h 3.7 km/h 77 % 0 mm
10:59 -8.8 °C -11.2 °C 34703.1 hPa NNW 9 km/h 5.6 km/h 76 % 0 mm
11:04 -8.7 °C -11 °C 34737 hPa NNE 6 km/h 5.6 km/h 76 % 0 mm
11:09 -8.7 °C -11.2 °C 34737 hPa East 11.9 km/h 5.6 km/h 75 % 0 mm
11:14 -8.5 °C -11 °C 34737 hPa NNE 11.1 km/h 6.3 km/h 75 % 0 mm
11:19 -8.4 °C -10.9 °C 34737 hPa NNE 6.3 km/h 4.2 km/h 75 % 0 mm
11:24 -8.4 °C -11 °C 34737 hPa NE 11.9 km/h 6.8 km/h 74 % 0 mm
11:29 -8.2 °C -10.9 °C 34737 hPa North 3.1 km/h 3.1 km/h 73 % 0 mm
11:34 -8.2 °C -10.9 °C 34737 hPa NE 15 km/h 10.3 km/h 73 % 0 mm
11:39 -8.2 °C -11 °C 34737 hPa NNE 9.3 km/h 7.6 km/h 72 % 0 mm
11:44 -8.1 °C -10.9 °C 34737 hPa NE 11.9 km/h 6.3 km/h 72 % 0 mm
11:49 -8 °C -10.9 °C 34737 hPa NNE 12.7 km/h 6.8 km/h 71 % 0 mm
11:54 -7.9 °C -10.9 °C 34737 hPa ENE 3.1 km/h 3.1 km/h 71 % 0 mm
11:55 -7.8 °C -10.7 °C 34737 hPa NW 3.7 km/h 2.3 km/h 71 % 0 mm
12:09 -7.6 °C -10.7 °C 34737 hPa ENE 9 km/h 4.2 km/h 70 % 0 mm
12:14 -7.4 °C -10.6 °C 34737 hPa NE 6 km/h 2.3 km/h 70 % 0 mm
12:19 -7.4 °C -10.6 °C 34737 hPa NNE 11.9 km/h 7.6 km/h 70 % 0 mm
12:24 -7.3 °C -10.4 °C 34737 hPa NE 6 km/h 4.2 km/h 70 % 0 mm
12:29 -7.3 °C -10.4 °C 34737 hPa NE 15 km/h 7.6 km/h 70 % 0 mm
12:34 -7.3 °C -10.4 °C 34737 hPa ENE 15 km/h 5.1 km/h 70 % 0 mm
12:39 -7.2 °C -10.5 °C 34737 hPa WNW 6 km/h 5.6 km/h 68 % 0 mm
12:44 -7.1 °C -10.3 °C 34737 hPa NNW 11.1 km/h 6.8 km/h 69 % 0 mm
12:49 -7.2 °C -10.6 °C 34737 hPa NNW 15.6 km/h 12.7 km/h 68 % 0 mm
12:54 -7.2 °C -10.4 °C 34737 hPa NNE 11.9 km/h 6.8 km/h 69 % 0 mm
12:59 -7.2 °C -10.4 °C 34737 hPa NNE 15.3 km/h 9.3 km/h 69 % 0 mm
13:04 -7.1 °C -10.3 °C 34703.1 hPa NNE 11.9 km/h 9.3 km/h 69 % 0 mm
13:09 -7.1 °C -10.3 °C 34703.1 hPa North 15 km/h 14 km/h 69 % 0 mm
13:14 -6.9 °C -10.1 °C 34703.1 hPa NNE 11.9 km/h 9.8 km/h 69 % 0 mm
13:19 -6.7 °C -10.1 °C 34703.1 hPa ENE 15 km/h 11.6 km/h 68 % 0 mm
13:24 -6.7 °C -10.1 °C 34703.1 hPa ENE 26.9 km/h 16.1 km/h 68 % 0 mm
13:29 -6.8 °C -10.3 °C 34703.1 hPa East 20.9 km/h 8.5 km/h 67 % 0 mm
13:34 -6.9 °C -10.4 °C 34703.1 hPa ENE 23.8 km/h 12.7 km/h 67 % 0 mm
13:39 -6.8 °C -10.3 °C 34703.1 hPa ESE 17.9 km/h 14 km/h 67 % 0 mm
13:44 -6.7 °C -10.3 °C 34703.1 hPa ENE 20.9 km/h 15.3 km/h 66 % 0 mm
13:49 -6.7 °C -10.3 °C 34703.1 hPa NE 20.3 km/h 15.6 km/h 66 % 0 mm
13:54 -6.6 °C -10.2 °C 34703.1 hPa East 20.3 km/h 14 km/h 66 % 0 mm
13:59 -6.6 °C -10.4 °C 34703.1 hPa NE 16.6 km/h 6.8 km/h 65 % 0 mm
14:04 -6.5 °C -10.3 °C 34703.1 hPa NE 23.8 km/h 12.7 km/h 65 % 0 mm
14:09 -6.6 °C -10.3 °C 34703.1 hPa NNE 23.8 km/h 14 km/h 65 % 0 mm
14:14 -6.6 °C -10.4 °C 34703.1 hPa ESE 17.9 km/h 14.5 km/h 65 % 0 mm
14:19 -6.6 °C -10.4 °C 34669.3 hPa ENE 26.9 km/h 16.6 km/h 64 % 0 mm
14:24 -6.6 °C -10.4 °C 34669.3 hPa ENE 17.9 km/h 14 km/h 64 % 0 mm
14:29 -6.5 °C -10.4 °C 34669.3 hPa ENE 15.3 km/h 11.1 km/h 64 % 0 mm
14:34 -6.4 °C -10.4 °C 34669.3 hPa ENE 15 km/h 14 km/h 64 % 0 mm
14:39 -6.6 °C -10.4 °C 34669.3 hPa ENE 20.9 km/h 11.6 km/h 64 % 0 mm
14:44 -6.6 °C -10.5 °C 34669.3 hPa NNE 17.9 km/h 15.6 km/h 64 % 0 mm
14:49 -6.7 °C -10.7 °C 34703.1 hPa East 17.9 km/h 15.3 km/h 63 % 0 mm
14:54 -6.7 °C -10.7 °C 34703.1 hPa NE 20.9 km/h 11.6 km/h 63 % 0 mm
14:59 -6.7 °C -10.7 °C 34703.1 hPa NNE 22 km/h 14.5 km/h 63 % 0 mm
15:04 -6.7 °C -10.7 °C 34703.1 hPa NE 20.9 km/h 9.3 km/h 63 % 0 mm
15:09 -6.7 °C -10.6 °C 34703.1 hPa ENE 17.9 km/h 9.3 km/h 64 % 0 mm
15:14 -6.7 °C -10.6 °C 34703.1 hPa East 20.9 km/h 11.6 km/h 64 % 0 mm
15:19 -6.6 °C -10.4 °C 34703.1 hPa NW 15 km/h 8.5 km/h 64 % 0 mm
15:24 -6.6 °C -10.4 °C 34703.1 hPa ESE 20.3 km/h 11.6 km/h 64 % 0 mm
15:29 -6.7 °C -10.7 °C 34703.1 hPa ENE 26.9 km/h 16.1 km/h 63 % 0 mm
15:34 -6.8 °C -10.7 °C 34703.1 hPa NNE 17.9 km/h 11.6 km/h 64 % 0 mm
15:39 -6.8 °C -10.7 °C 34703.1 hPa ESE 17.4 km/h 14.5 km/h 64 % 0 mm
15:44 -6.9 °C -10.8 °C 34703.1 hPa ESE 23.8 km/h 17.9 km/h 64 % 0 mm
15:49 -6.9 °C -10.7 °C 34703.1 hPa East 17.9 km/h 17.4 km/h 65 % 0 mm
15:54 -6.8 °C -10.7 °C 34703.1 hPa ESE 16.6 km/h 15.6 km/h 64 % 0 mm
15:59 -6.9 °C -10.8 °C 34703.1 hPa East 19.2 km/h 15.3 km/h 64 % 0 mm
16:04 -6.9 °C -10.8 °C 34703.1 hPa ENE 20.9 km/h 10.3 km/h 64 % 0 mm
16:09 -6.9 °C -10.8 °C 34703.1 hPa East 26.9 km/h 15.6 km/h 64 % 0 mm
16:14 -6.9 °C -10.8 °C 34703.1 hPa ENE 20.9 km/h 15.3 km/h 64 % 0 mm
16:19 -6.9 °C -10.7 °C 34737 hPa NNW 15 km/h 11.1 km/h 65 % 0 mm
16:24 -7 °C -10.7 °C 34737 hPa ENE 15 km/h 9.8 km/h 65 % 0 mm
16:29 -7.1 °C -10.8 °C 34737 hPa East 17.9 km/h 12.2 km/h 65 % 0 mm
16:34 -7.1 °C -10.8 °C 34737 hPa ENE 20.9 km/h 11.6 km/h 65 % 0 mm
16:39 -7.1 °C -10.9 °C 34737 hPa North 20.9 km/h 11.6 km/h 65 % 0 mm
16:44 -7.2 °C -10.8 °C 34737 hPa NNE 11.9 km/h 14 km/h 66 % 0 mm
16:49 -7.2 °C -10.8 °C 34737 hPa ENE 15 km/h 9.8 km/h 66 % 0 mm
16:54 -7.3 °C -10.8 °C 34737 hPa NNE 15 km/h 9.8 km/h 67 % 0 mm
16:59 -7.4 °C -10.7 °C 34737 hPa NNE 12.7 km/h 8.5 km/h 68 % 0 mm
17:04 -7.4 °C -10.8 °C 34737 hPa ESE 9 km/h 8 km/h 68 % 0 mm
17:09 -7.6 °C -10.9 °C 34737 hPa ENE 6.3 km/h 7.6 km/h 68 % 0 mm
17:14 -7.6 °C -10.8 °C 34737 hPa NE 11.9 km/h 7.6 km/h 69 % 0 mm
17:19 -7.6 °C -10.8 °C 34737 hPa ENE 9.3 km/h 9.3 km/h 69 % 0 mm
17:24 -7.6 °C -10.8 °C 34737 hPa NE 15 km/h 7.6 km/h 69 % 0 mm
17:29 -7.6 °C -10.8 °C 34737 hPa North 11.9 km/h 9.3 km/h 69 % 0 mm
17:34 -7.6 °C -10.8 °C 34737 hPa NE 15 km/h 6.8 km/h 69 % 0 mm
17:39 -7.7 °C -10.8 °C 34737 hPa NE 11.9 km/h 5.1 km/h 70 % 0 mm
17:44 -7.7 °C -10.8 °C 34737 hPa ENE 9 km/h 3.1 km/h 70 % 0 mm
17:49 -7.8 °C -10.9 °C 34737 hPa ENE 6 km/h 3.7 km/h 70 % 0 mm
17:54 -7.8 °C -10.8 °C 34737 hPa NE 3.1 km/h   71 % 0 mm
17:59 -7.8 °C -10.8 °C 34737 hPa ENE 3.1 km/h 2.3 km/h 71 % 0 mm
18:04 -7.9 °C -10.9 °C 34737 hPa ENE 5.1 km/h   71 % 0 mm
18:09 -7.9 °C -10.8 °C 34737 hPa Calm     72 % 0 mm
18:14 -8 °C -10.8 °C 34737 hPa NE 6 km/h 2.3 km/h 72 % 0 mm
18:19 -8 °C -10.8 °C 34770.8 hPa NE 3.1 km/h   72 % 0 mm
18:24 -8.1 °C -10.9 °C 34770.8 hPa ENE 6 km/h 3.1 km/h 72 % 0 mm
18:29 -8.1 °C -10.8 °C 34770.8 hPa ENE 5.1 km/h 4.2 km/h 73 % 0 mm
18:34 -8.2 °C -10.9 °C 34737 hPa ENE 6.3 km/h 6.3 km/h 73 % 0 mm
18:39 -8.2 °C -10.9 °C 34737 hPa East 11.9 km/h 7.6 km/h 73 % 0 mm
18:44 -8.2 °C -10.9 °C 34737 hPa NE 9.8 km/h 8.5 km/h 73 % 0 mm
18:49 -8.2 °C -10.9 °C 34737 hPa NNE 11.9 km/h 8 km/h 73 % 0 mm
18:54 -8.2 °C -10.9 °C 34737 hPa ENE 11.9 km/h 8.5 km/h 73 % 0 mm
18:59 -8.2 °C -10.8 °C 34737 hPa ENE 9.8 km/h 8 km/h 74 % 0 mm
19:04 -8.2 °C -10.8 °C 34737 hPa NNE 11.9 km/h 9.3 km/h 74 % 0 mm
19:09 -8.2 °C -10.8 °C 34737 hPa ENE 15 km/h 7.6 km/h 74 % 0 mm
19:14 -8.2 °C -10.8 °C 34737 hPa ENE 11.9 km/h 8.5 km/h 74 % 0 mm
19:19 -8.2 °C -10.8 °C 34770.8 hPa ESE 15 km/h 10.3 km/h 74 % 0 mm
19:24 -8.3 °C -10.8 °C 34770.8 hPa ENE 6 km/h 3.1 km/h 75 % 0 mm
19:29 -8.3 °C -10.8 °C 34770.8 hPa NNE 9.3 km/h 5.6 km/h 75 % 0 mm
Meteo Sesrovires
Elogis d' Weather Underground - 1.5 mb

Guio original per  Jim McMurry - jmcmurry@mwt.net Adaptat per a la plantilla per  Wim van der Kuil - Leuven-Template.eu

Trobareu la nostra informacio del temps tambe a:

Weather Underground

AWEKAS